Time,TemperatureF,DewpointF,PressureIn,WindDirection,WindDirectionDegrees,WindSpeedMPH,WindSpeedGustMPH,Humidity,HourlyPrecipIn,Conditions,Clouds,dailyrainin,SoftwareType,DateUTC
2015-05-28 00:02:00,63.2,57.3,29.81,West,270,0.0,0.0,81,0.00,,BKN018,0.00,VWS V14.01,2015-05-28 05:02:00,
2015-05-28 00:07:00,63.2,56.9,29.81,West,270,0.0,0.0,80,0.00,,BKN018,0.00,VWS V14.01,2015-05-28 05:07:00,
2015-05-28 00:12:00,63.5,56.9,29.81,West,270,0.0,0.0,79,0.00,,BKN018,0.00,VWS V14.01,2015-05-28 05:12:00,
2015-05-28 00:17:00,63.7,57.1,29.81,West,270,0.0,0.0,79,0.00,,BKN018,0.00,VWS V14.01,2015-05-28 05:17:00,
2015-05-28 00:22:00,63.9,56.6,29.81,West,270,0.0,0.0,77,0.00,,BKN018,0.00,VWS V14.01,2015-05-28 05:22:00,
2015-05-28 00:27:00,63.7,57.1,29.81,West,270,0.0,0.0,79,0.00,,BKN018,0.00,VWS V14.01,2015-05-28 05:27:00,
2015-05-28 00:32:00,63.2,56.9,29.81,West,270,0.0,0.0,80,0.00,,BKN018,0.00,VWS V14.01,2015-05-28 05:32:00,
2015-05-28 00:37:00,63.1,56.8,29.81,West,270,0.0,0.0,80,0.00,,BKN018,0.00,VWS V14.01,2015-05-28 05:37:00,
2015-05-28 00:42:00,63.2,56.6,29.81,West,270,0.0,0.0,79,0.00,,BKN018,0.00,VWS V14.01,2015-05-28 05:42:00,
2015-05-28 00:47:00,63.4,56.1,29.81,West,270,0.0,1.0,77,0.00,,BKN018,0.00,VWS V14.01,2015-05-28 05:47:00,
2015-05-28 00:52:00,63.9,55.8,29.81,West,270,0.0,1.0,75,0.00,,BKN018,0.00,VWS V14.01,2015-05-28 05:52:00,
2015-05-28 00:57:00,64.0,55.9,29.81,West,270,0.0,1.0,75,0.00,,BKN018,0.00,VWS V14.01,2015-05-28 05:57:00,
2015-05-28 01:02:00,64.2,55.8,29.81,West,269,0.0,0.0,74,0.00,,BKN018,0.00,VWS V14.01,2015-05-28 06:02:00,
2015-05-28 01:07:00,64.3,55.8,29.81,West,269,0.0,0.0,74,0.00,,BKN018,0.00,VWS V14.01,2015-05-28 06:07:00,
2015-05-28 01:12:00,64.3,55.8,29.81,West,269,0.0,0.0,74,0.00,,BKN018,0.00,VWS V14.01,2015-05-28 06:12:00,
2015-05-28 01:17:00,64.0,56.3,29.81,West,269,0.0,0.0,76,0.00,,BKN018,0.00,VWS V14.01,2015-05-28 06:17:00,
2015-05-28 01:22:00,63.9,55.8,29.81,West,266,0.0,0.0,75,0.00,,BKN018,0.00,VWS V14.01,2015-05-28 06:22:00,
2015-05-28 01:27:00,63.9,55.5,29.81,West,266,0.0,0.0,74,0.00,,BKN018,0.00,VWS V14.01,2015-05-28 06:27:00,
2015-05-28 01:32:00,63.7,55.6,29.81,West,266,0.0,0.0,75,0.00,,BKN018,0.00,VWS V14.01,2015-05-28 06:32:00,
2015-05-28 01:37:00,63.7,55.6,29.81,West,266,0.0,0.0,75,0.00,,BKN018,0.00,VWS V14.01,2015-05-28 06:37:00,
2015-05-28 01:42:00,63.7,55.6,29.81,West,266,0.0,0.0,75,0.00,,BKN018,0.00,VWS V14.01,2015-05-28 06:42:00,
2015-05-28 01:47:00,63.5,55.8,29.81,South,182,0.0,2.0,76,0.00,,BKN018,0.00,VWS V14.01,2015-05-28 06:47:00,
2015-05-28 01:52:00,63.5,55.8,29.81,South,182,0.0,2.0,76,0.00,,BKN018,0.00,VWS V14.01,2015-05-28 06:52:00,
2015-05-28 01:57:00,63.5,55.8,29.81,South,182,0.0,2.0,76,0.00,,BKN018,0.00,VWS V14.01,2015-05-28 06:57:00,
2015-05-28 02:02:00,63.5,55.4,29.81,South,182,0.0,0.0,75,0.00,,BKN018,0.00,VWS V14.01,2015-05-28 07:02:00,
2015-05-28 02:08:00,63.5,55.4,29.81,South,182,0.0,1.0,75,0.00,,BKN018,0.00,VWS V14.01,2015-05-28 07:08:00,
2015-05-28 02:13:00,63.5,55.8,29.81,South,182,0.0,1.0,76,0.00,,BKN018,0.00,VWS V14.01,2015-05-28 07:13:00,
2015-05-28 02:18:00,63.5,55.4,29.81,South,182,0.0,1.0,75,0.00,,BKN018,0.00,VWS V14.01,2015-05-28 07:18:00,
2015-05-28 02:23:00,63.5,55.1,29.81,South,182,0.0,1.0,74,0.00,,BKN018,0.00,VWS V14.01,2015-05-28 07:23:00,
2015-05-28 02:28:00,63.7,54.9,29.81,South,182,0.0,1.0,73,0.00,,BKN018,0.00,VWS V14.01,2015-05-28 07:28:00,
2015-05-28 02:33:00,63.9,55.1,29.81,South,182,0.0,0.0,73,0.00,,BKN018,0.00,VWS V14.01,2015-05-28 07:33:00,
2015-05-28 02:38:00,63.9,55.1,29.81,South,182,0.0,0.0,73,0.00,,BKN018,0.00,VWS V14.01,2015-05-28 07:38:00,
2015-05-28 02:43:00,63.9,55.1,29.81,South,182,0.0,0.0,73,0.00,,BKN018,0.00,VWS V14.01,2015-05-28 07:43:00,
2015-05-28 02:48:00,63.9,55.1,29.81,South,182,0.0,0.0,73,0.00,,BKN018,0.00,VWS V14.01,2015-05-28 07:48:00,
2015-05-28 02:53:00,63.9,55.1,29.81,South,182,0.0,0.0,73,0.00,,BKN018,0.00,VWS V14.01,2015-05-28 07:53:00,
2015-05-28 02:58:00,63.7,54.9,29.81,South,182,0.0,0.0,73,0.00,,BKN018,0.00,VWS V14.01,2015-05-28 07:58:00,
2015-05-28 03:03:00,63.7,54.9,29.81,South,182,0.0,0.0,73,0.00,,BKN018,0.00,VWS V14.01,2015-05-28 08:03:00,
2015-05-28 03:08:00,63.7,54.9,29.81,South,182,0.0,0.0,73,0.00,,BKN018,0.00,VWS V14.01,2015-05-28 08:08:00,
2015-05-28 03:13:00,63.7,54.5,29.81,South,182,0.0,0.0,72,0.00,,BKN018,0.00,VWS V14.01,2015-05-28 08:13:00,
2015-05-28 03:18:00,63.9,54.7,29.80,South,182,0.0,1.0,72,0.00,,BKN018,0.00,VWS V14.01,2015-05-28 08:18:00,
2015-05-28 03:23:00,63.9,54.7,29.80,South,182,0.0,1.0,72,0.00,,BKN018,0.00,VWS V14.01,2015-05-28 08:23:00,
2015-05-28 03:28:00,63.7,54.5,29.80,South,182,0.0,1.0,72,0.00,,BKN018,0.00,VWS V14.01,2015-05-28 08:28:00,
2015-05-28 03:33:00,63.7,54.9,29.80,South,182,0.0,0.0,73,0.00,,BKN018,0.00,VWS V14.01,2015-05-28 08:33:00,
2015-05-28 03:38:00,63.5,54.7,29.80,South,182,2.0,2.0,73,0.00,,BKN018,0.00,VWS V14.01,2015-05-28 08:38:00,
2015-05-28 03:43:00,63.5,54.7,29.80,South,182,0.0,2.0,73,0.00,,BKN018,0.00,VWS V14.01,2015-05-28 08:43:00,
2015-05-28 03:48:00,63.5,54.3,29.80,South,178,0.0,2.0,72,0.00,,BKN018,0.00,VWS V14.01,2015-05-28 08:48:00,
2015-05-28 03:53:00,63.5,54.7,29.80,South,171,1.0,2.0,73,0.00,,BKN018,0.00,VWS V14.01,2015-05-28 08:53:00,
2015-05-28 03:58:00,63.2,54.4,29.80,South,171,0.0,2.0,73,0.00,,BKN018,0.00,VWS V14.01,2015-05-28 08:58:00,
2015-05-28 04:03:00,62.9,54.5,29.80,SSE,161,0.0,2.0,74,0.00,,BKN018,0.00,VWS V14.01,2015-05-28 09:03:00,
2015-05-28 04:08:00,62.4,54.4,29.80,SSE,161,0.0,2.0,75,0.00,,BKN018,0.00,VWS V14.01,2015-05-28 09:08:00,
2015-05-28 04:13:00,62.1,54.5,29.80,SSE,158,0.0,2.0,76,0.00,,BKN018,0.00,VWS V14.01,2015-05-28 09:13:00,
2015-05-28 04:18:00,61.8,54.9,29.80,SSE,158,0.0,2.0,78,0.00,,BKN018,0.00,VWS V14.01,2015-05-28 09:18:00,
2015-05-28 04:23:00,61.5,54.9,29.80,SSE,158,0.0,2.0,79,0.00,,BKN018,0.00,VWS V14.01,2015-05-28 09:23:00,
2015-05-28 04:28:00,61.3,54.7,29.80,SSE,158,0.0,2.0,79,0.00,,BKN018,0.00,VWS V14.01,2015-05-28 09:28:00,
2015-05-28 04:33:00,61.3,54.7,29.81,SSE,157,0.0,0.0,79,0.00,,BKN018,0.00,VWS V14.01,2015-05-28 09:33:00,
2015-05-28 04:38:00,61.3,54.7,29.81,SSE,156,0.0,0.0,79,0.00,,BKN018,0.00,VWS V14.01,2015-05-28 09:38:00,
2015-05-28 04:43:00,61.3,54.7,29.81,SSE,156,0.0,0.0,79,0.00,,BKN018,0.00,VWS V14.01,2015-05-28 09:43:00,
2015-05-28 04:48:00,61.3,54.7,29.82,SSE,156,0.0,1.0,79,0.00,,BKN018,0.00,VWS V14.01,2015-05-28 09:48:00,
2015-05-28 04:53:00,61.3,54.7,29.82,SSE,156,0.0,1.0,79,0.00,,BKN018,0.00,VWS V14.01,2015-05-28 09:53:00,
2015-05-28 04:58:00,61.3,54.7,29.82,SSE,154,1.0,2.0,79,0.00,,BKN018,0.00,VWS V14.01,2015-05-28 09:58:00,
2015-05-28 05:04:00,61.2,54.6,29.82,SSE,154,0.0,0.0,79,0.00,,BKN018,0.00,VWS V14.01,2015-05-28 10:04:00,
2015-05-28 05:09:00,61.0,54.8,29.82,SSE,154,0.0,1.0,80,0.00,,BKN018,0.00,VWS V14.01,2015-05-28 10:09:00,
2015-05-28 05:14:00,61.0,54.8,29.82,SSE,154,0.0,1.0,80,0.00,,BKN018,0.00,VWS V14.01,2015-05-28 10:14:00,
2015-05-28 05:19:00,60.9,54.7,29.82,SSE,154,0.0,1.0,80,0.00,,BKN018,0.00,VWS V14.01,2015-05-28 10:19:00,
2015-05-28 05:24:00,60.7,54.8,29.82,SSE,154,0.0,1.0,81,0.00,,BKN018,0.00,VWS V14.01,2015-05-28 10:24:00,
2015-05-28 05:29:00,60.9,55.0,29.82,SSE,154,0.0,1.0,81,0.00,,BKN018,0.00,VWS V14.01,2015-05-28 10:29:00,
2015-05-28 05:34:00,61.0,54.8,29.82,SSE,154,0.0,0.0,80,0.00,,BKN018,0.00,VWS V14.01,2015-05-28 10:34:00,
2015-05-28 05:39:00,61.0,54.8,29.82,SSE,154,0.0,0.0,80,0.00,,BKN018,0.00,VWS V14.01,2015-05-28 10:39:00,
2015-05-28 05:44:00,61.0,54.8,29.82,SSE,154,0.0,0.0,80,0.00,,BKN018,0.00,VWS V14.01,2015-05-28 10:44:00,
2015-05-28 05:49:00,60.9,55.0,29.83,SSE,153,0.0,1.0,81,0.00,,BKN018,0.00,VWS V14.01,2015-05-28 10:49:00,
2015-05-28 05:54:00,60.9,55.0,29.83,SSE,153,0.0,1.0,81,0.00,,BKN018,0.00,VWS V14.01,2015-05-28 10:54:00,
2015-05-28 05:59:00,60.9,55.0,29.83,SSE,151,0.0,1.0,81,0.00,,BKN018,0.00,VWS V14.01,2015-05-28 10:59:00,
2015-05-28 06:04:00,60.9,55.0,29.82,SSE,151,0.0,0.0,81,0.00,,BKN018,0.00,VWS V14.01,2015-05-28 11:04:00,
2015-05-28 06:09:00,60.9,55.4,29.82,SSE,151,0.0,0.0,82,0.00,,BKN018,0.00,VWS V14.01,2015-05-28 11:09:00,
2015-05-28 06:14:00,60.9,55.4,29.82,SSE,150,0.0,0.0,82,0.00,,BKN018,0.00,VWS V14.01,2015-05-28 11:14:00,
2015-05-28 06:19:00,60.7,55.5,29.82,SSE,149,0.0,0.0,83,0.00,,BKN018,0.00,VWS V14.01,2015-05-28 11:19:00,
2015-05-28 06:24:00,60.9,55.7,29.82,SSE,149,0.0,0.0,83,0.00,,BKN018,0.00,VWS V14.01,2015-05-28 11:24:00,
2015-05-28 06:29:00,61.0,55.5,29.82,SSE,149,0.0,0.0,82,0.00,,BKN018,0.00,VWS V14.01,2015-05-28 11:29:00,
2015-05-28 06:34:00,61.3,55.8,29.83,SSE,149,0.0,0.0,82,0.00,,BKN018,0.00,VWS V14.01,2015-05-28 11:34:00,
2015-05-28 06:39:00,61.6,56.1,29.83,SSE,149,0.0,0.0,82,0.00,,BKN018,0.00,VWS V14.01,2015-05-28 11:39:00,
2015-05-28 06:44:00,61.6,56.1,29.83,SSE,149,0.0,1.0,82,0.00,,BKN018,0.00,VWS V14.01,2015-05-28 11:44:00,
2015-05-28 06:49:00,61.8,56.2,29.83,ESE,106,0.0,1.0,82,0.00,,BKN018,0.00,VWS V14.01,2015-05-28 11:49:00,
2015-05-28 06:54:00,62.1,56.2,29.83,ESE,106,0.0,1.0,81,0.00,,BKN018,0.00,VWS V14.01,2015-05-28 11:54:00,
2015-05-28 06:59:00,62.6,56.0,29.83,ESE,106,0.0,2.0,79,0.00,,BKN018,0.00,VWS V14.01,2015-05-28 11:59:00,
2015-05-28 07:04:00,63.2,56.2,29.83,ESE,106,0.0,2.0,78,0.00,,BKN018,0.00,VWS V14.01,2015-05-28 12:04:00,
2015-05-28 07:09:00,63.9,56.2,29.83,ESE,108,0.0,3.0,76,0.00,,BKN018,0.00,VWS V14.01,2015-05-28 12:09:00,
2015-05-28 07:14:00,64.3,55.8,29.84,ESE,108,0.0,3.0,74,0.00,,BKN018,0.00,VWS V14.01,2015-05-28 12:14:00,
2015-05-28 07:19:00,64.8,56.3,29.84,ESE,108,2.0,3.0,74,0.00,,BKN018,0.00,VWS V14.01,2015-05-28 12:19:00,
2015-05-28 07:24:00,65.3,56.4,29.84,ESE,108,1.0,3.0,73,0.00,,BKN018,0.00,VWS V14.01,2015-05-28 12:24:00,
2015-05-28 07:29:00,65.8,56.5,29.83,ESE,108,2.0,3.0,72,0.00,,BKN018,0.00,VWS V14.01,2015-05-28 12:29:00,
2015-05-28 07:34:00,66.1,56.8,29.83,ESE,119,2.0,3.0,72,0.00,,BKN018,0.00,VWS V14.01,2015-05-28 12:34:00,
2015-05-28 07:39:00,66.4,56.3,29.83,ESE,119,2.0,7.0,70,0.00,,BKN018,0.00,VWS V14.01,2015-05-28 12:39:00,
2015-05-28 07:44:00,66.6,56.5,29.83,ESE,118,2.0,7.0,70,0.00,,BKN018,0.00,VWS V14.01,2015-05-28 12:44:00,
2015-05-28 07:49:00,66.9,56.8,29.83,SE,137,3.0,7.0,70,0.00,,BKN018,0.00,VWS V14.01,2015-05-28 12:49:00,
2015-05-28 07:54:00,67.3,57.2,29.83,SE,130,0.0,7.0,70,0.00,,BKN018,0.00,VWS V14.01,2015-05-28 12:54:00,
2015-05-28 07:59:00,67.6,57.5,29.83,SE,127,2.0,7.0,70,0.00,,BKN018,0.00,VWS V14.01,2015-05-28 12:59:00,
2015-05-28 08:05:00,67.9,57.8,29.83,SE,133,4.0,4.0,70,0.00,,BKN018,0.00,VWS V14.01,2015-05-28 13:05:00,
2015-05-28 08:10:00,68.3,57.8,29.83,SE,125,2.0,7.0,69,0.00,,BKN018,0.00,VWS V14.01,2015-05-28 13:10:00,
2015-05-28 08:15:00,68.6,58.0,29.84,SE,140,2.0,7.0,69,0.00,,BKN018,0.00,VWS V14.01,2015-05-28 13:15:00,
2015-05-28 08:20:00,69.1,58.1,29.84,SE,140,0.0,7.0,68,0.00,,BKN018,0.00,VWS V14.01,2015-05-28 13:20:00,
2015-05-28 08:25:00,69.4,57.6,29.84,ESE,123,2.0,7.0,66,0.00,,BKN018,0.00,VWS V14.01,2015-05-28 13:25:00,
2015-05-28 08:30:00,69.9,58.5,29.84,ESE,123,1.0,7.0,67,0.00,,BKN018,0.00,VWS V14.01,2015-05-28 13:30:00,
2015-05-28 08:35:00,70.4,58.9,29.84,SE,125,1.0,3.0,67,0.00,,BKN018,0.00,VWS V14.01,2015-05-28 13:35:00,
2015-05-28 08:40:00,70.9,58.1,29.84,ESE,112,0.0,8.0,64,0.00,,BKN018,0.00,VWS V14.01,2015-05-28 13:40:00,
2015-05-28 08:45:00,71.3,58.5,29.84,SE,125,1.0,8.0,64,0.00,,BKN018,0.00,VWS V14.01,2015-05-28 13:45:00,
2015-05-28 08:50:00,71.6,58.3,29.84,ESE,115,3.0,8.0,63,0.00,,BKN018,0.00,VWS V14.01,2015-05-28 13:50:00,
2015-05-28 08:55:00,72.1,57.9,29.84,SE,126,0.0,8.0,61,0.00,,BKN018,0.00,VWS V14.01,2015-05-28 13:55:00,
2015-05-28 09:00:00,72.5,58.8,29.84,SE,132,3.0,8.0,62,0.00,,BKN018,0.00,VWS V14.01,2015-05-28 14:00:00,
2015-05-28 09:05:00,73.2,59.0,29.84,ESE,116,2.0,6.0,61,0.00,,BKN018,0.00,VWS V14.01,2015-05-28 14:05:00,
2015-05-28 09:10:00,73.5,57.8,29.84,SSE,160,6.0,7.0,58,0.00,,BKN018,0.00,VWS V14.01,2015-05-28 14:10:00,
2015-05-28 09:15:00,73.9,57.7,29.84,SE,133,1.0,7.0,57,0.00,,BKN018,0.00,VWS V14.01,2015-05-28 14:15:00,
2015-05-28 09:20:00,74.2,58.5,29.84,SE,136,0.0,7.0,58,0.00,,BKN018,0.00,VWS V14.01,2015-05-28 14:20:00,